Time,TemperatureF,DewpointF,PressureIn,WindDirection,WindDirectionDegrees,WindSpeedMPH,WindSpeedGustMPH,Humidity,HourlyPrecipIn,Conditions,Clouds,dailyrainin,SolarRadiationWatts/m^2,SoftwareType,DateUTC
2013-05-03 00:03:00,56.0,54.0,-100.00,NE,40,2.0,5.0,93,0.00,,,0.02,0.000000,,2013-05-03 04:03:00,
2013-05-03 00:32:00,56.0,55.0,-100.00,NE,39,2.0,4.0,96,0.00,,,-99.99,0.000000,,2013-05-03 04:32:00,
2013-05-03 00:43:00,56.0,55.0,-100.00,NE,39,2.0,4.0,96,0.00,,,-99.99,0.000000,,2013-05-03 04:43:00,
2013-05-03 00:53:00,56.0,55.0,-100.00,NE,39,2.0,4.0,96,0.00,,,-99.99,0.000000,,2013-05-03 04:53:00,
2013-05-03 01:02:00,56.0,55.0,-100.00,NE,39,2.0,4.0,96,0.00,,,-99.99,0.000000,,2013-05-03 05:02:00,
2013-05-03 01:22:00,55.0,54.0,-100.00,NNE,24,3.0,4.0,96,0.00,,,0.02,0.000000,,2013-05-03 05:22:00,
2013-05-03 01:32:00,55.0,54.0,-100.00,NNE,24,3.0,4.0,96,0.00,,,0.02,0.000000,,2013-05-03 05:32:00,
2013-05-03 01:42:00,55.0,54.0,-100.00,NNE,24,3.0,4.0,96,0.00,,,0.02,0.000000,,2013-05-03 05:42:00,
2013-05-03 01:52:00,55.0,54.0,-100.00,NNE,24,3.0,4.0,96,0.00,,,0.02,0.000000,,2013-05-03 05:52:00,
2013-05-03 02:02:00,55.0,54.0,-100.00,NNE,24,3.0,4.0,96,0.00,,,0.02,0.000000,,2013-05-03 06:02:00,
2013-05-03 02:32:00,56.0,54.0,-100.00,NNE,32,3.0,5.0,92,0.00,,,0.02,0.000000,,2013-05-03 06:32:00,
2013-05-03 02:42:00,56.0,54.0,-100.00,NNE,32,3.0,5.0,92,0.00,,,0.02,0.000000,,2013-05-03 06:42:00,
2013-05-03 02:52:00,56.0,54.0,-100.00,NNE,32,3.0,5.0,92,0.00,,,0.02,0.000000,,2013-05-03 06:52:00,
2013-05-03 03:01:00,56.0,54.0,-100.00,NNE,32,3.0,5.0,92,0.00,,,0.02,0.000000,,2013-05-03 07:01:00,
2013-05-03 03:22:00,56.0,52.0,-100.00,NE,37,2.0,6.0,88,0.00,,,0.02,0.000000,,2013-05-03 07:22:00,
2013-05-03 03:32:00,56.0,52.0,-100.00,NE,37,2.0,6.0,88,0.00,,,0.02,0.000000,,2013-05-03 07:32:00,
2013-05-03 03:42:00,56.0,52.0,-100.00,NE,37,2.0,6.0,88,0.00,,,0.02,0.000000,,2013-05-03 07:42:00,
2013-05-03 03:52:00,56.0,52.0,-100.00,NE,37,2.0,6.0,88,0.00,,,0.02,0.000000,,2013-05-03 07:52:00,
2013-05-03 04:02:00,56.0,52.0,-100.00,NE,37,2.0,6.0,88,0.00,,,0.02,0.000000,,2013-05-03 08:02:00,
2013-05-03 04:22:00,55.0,52.0,-100.00,NE,50,2.0,6.0,88,0.00,,,0.01,0.000000,,2013-05-03 08:22:00,
2013-05-03 04:32:00,55.0,52.0,-100.00,NE,50,2.0,6.0,88,0.00,,,0.01,0.000000,,2013-05-03 08:32:00,
2013-05-03 04:42:00,55.0,52.0,-100.00,NE,50,2.0,6.0,88,0.00,,,0.01,0.000000,,2013-05-03 08:42:00,
2013-05-03 04:53:00,55.0,52.0,-100.00,NE,50,2.0,6.0,88,0.00,,,0.01,0.000000,,2013-05-03 08:53:00,
2013-05-03 05:01:00,55.0,52.0,-100.00,NE,50,2.0,6.0,88,0.00,,,0.01,0.000000,,2013-05-03 09:01:00,
2013-05-03 05:21:00,54.0,51.0,-100.00,ENE,58,3.0,10.0,88,0.00,,,0.00,0.000000,,2013-05-03 09:21:00,
2013-05-03 05:33:00,54.0,51.0,-100.00,ENE,58,3.0,10.0,88,0.00,,,0.00,0.000000,,2013-05-03 09:33:00,
2013-05-03 05:42:00,54.0,51.0,-100.00,ENE,58,3.0,10.0,88,0.00,,,0.00,0.000000,,2013-05-03 09:42:00,
2013-05-03 05:53:00,54.0,51.0,-100.00,ENE,58,3.0,10.0,88,0.00,,,0.00,0.000000,,2013-05-03 09:53:00,
2013-05-03 06:03:00,54.0,51.0,-100.00,ENE,58,3.0,10.0,88,0.00,,,0.00,0.000000,,2013-05-03 10:03:00,
2013-05-03 06:32:00,53.0,50.0,-100.00,East,83,3.0,7.0,88,0.00,,,0.00,0.000000,,2013-05-03 10:32:00,
2013-05-03 06:42:00,53.0,50.0,-100.00,East,83,3.0,7.0,88,0.00,,,0.00,0.000000,,2013-05-03 10:42:00,
2013-05-03 06:52:00,53.0,50.0,-100.00,East,83,3.0,7.0,88,0.00,,,0.00,0.000000,,2013-05-03 10:52:00,
2013-05-03 07:02:00,53.0,50.0,-100.00,East,83,3.0,7.0,88,0.00,,,0.00,0.000000,,2013-05-03 11:02:00,
2013-05-03 07:32:00,53.0,50.0,-100.00,NE,47,3.0,9.0,88,0.00,,,0.00,6.000000,,2013-05-03 11:32:00,
2013-05-03 07:42:00,53.0,50.0,-100.00,NE,47,3.0,9.0,88,0.00,,,0.00,6.000000,,2013-05-03 11:42:00,
2013-05-03 07:52:00,53.0,50.0,-100.00,NE,47,3.0,9.0,88,0.00,,,0.00,6.000000,,2013-05-03 11:52:00,
2013-05-03 08:02:00,53.0,50.0,-100.00,NE,47,3.0,9.0,88,0.00,,,0.00,6.000000,,2013-05-03 12:02:00,
2013-05-03 08:22:00,54.0,49.0,-100.00,NE,48,4.0,10.0,82,0.00,,,0.00,66.000000,,2013-05-03 12:22:00,
2013-05-03 08:32:00,54.0,49.0,-100.00,NE,48,4.0,10.0,82,0.00,,,0.00,66.000000,,2013-05-03 12:32:00,
2013-05-03 08:42:00,54.0,49.0,-100.00,NE,48,4.0,10.0,82,0.00,,,0.00,66.000000,,2013-05-03 12:42:00,
2013-05-03 08:52:00,54.0,49.0,-100.00,NE,48,4.0,10.0,82,0.00,,,0.00,66.000000,,2013-05-03 12:52:00,
2013-05-03 09:01:00,54.0,49.0,-100.00,NE,48,4.0,10.0,82,0.00,,,0.00,66.000000,,2013-05-03 13:01:00,
2013-05-03 09:32:00,56.0,49.0,-100.00,NE,48,3.0,10.0,77,0.00,,,0.00,177.000000,,2013-05-03 13:32:00,
2013-05-03 09:42:00,56.0,49.0,-100.00,NE,48,3.0,10.0,77,0.00,,,0.00,177.000000,,2013-05-03 13:42:00,
2013-05-03 09:52:00,56.0,49.0,-100.00,NE,48,3.0,10.0,77,0.00,,,0.00,177.000000,,2013-05-03 13:52:00,
2013-05-03 10:02:00,56.0,49.0,-100.00,NE,48,3.0,10.0,77,0.00,,,0.00,177.000000,,2013-05-03 14:02:00,
2013-05-03 10:32:00,57.0,49.0,-100.00,NE,53,4.0,10.0,74,0.00,,,0.00,261.000000,,2013-05-03 14:32:00,
2013-05-03 10:42:00,57.0,49.0,-100.00,NE,53,4.0,10.0,74,0.00,,,0.00,261.000000,,2013-05-03 14:42:00,
2013-05-03 10:52:00,57.0,49.0,-100.00,NE,53,4.0,10.0,74,0.00,,,0.00,261.000000,,2013-05-03 14:52:00,
2013-05-03 11:01:00,57.0,49.0,-100.00,NE,53,4.0,10.0,74,0.00,,,0.00,261.000000,,2013-05-03 15:01:00,
2013-05-03 11:32:00,59.0,49.0,-100.00,NE,42,4.0,8.0,70,0.00,,,0.00,342.000000,,2013-05-03 15:32:00,
2013-05-03 11:43:00,59.0,49.0,-100.00,NE,42,4.0,8.0,70,0.00,,,0.00,342.000000,,2013-05-03 15:43:00,
2013-05-03 11:53:00,59.0,49.0,-100.00,NE,42,4.0,8.0,70,0.00,,,0.00,342.000000,,2013-05-03 15:53:00,
2013-05-03 12:03:00,59.0,49.0,-100.00,NE,42,4.0,8.0,70,0.00,,,0.00,342.000000,,2013-05-03 16:03:00,
2013-05-03 12:33:00,61.0,50.0,-100.00,NE,41,4.0,9.0,66,0.00,,,0.00,506.000000,,2013-05-03 16:33:00,
2013-05-03 12:42:00,61.0,50.0,-100.00,NE,41,4.0,9.0,66,0.00,,,0.00,506.000000,,2013-05-03 16:42:00,
2013-05-03 12:52:00,61.0,50.0,-100.00,NE,41,4.0,9.0,66,0.00,,,0.00,506.000000,,2013-05-03 16:52:00,
2013-05-03 13:02:00,61.0,50.0,-100.00,NE,41,4.0,9.0,66,0.00,,,0.00,506.000000,,2013-05-03 17:02:00,
2013-05-03 13:23:00,61.0,50.0,-100.00,ENE,57,4.0,10.0,67,0.00,,,0.00,426.000000,,2013-05-03 17:23:00,
2013-05-03 13:32:00,61.0,50.0,-100.00,ENE,57,4.0,10.0,67,0.00,,,0.00,426.000000,,2013-05-03 17:32:00,
2013-05-03 13:42:00,61.0,50.0,-100.00,ENE,57,4.0,10.0,67,0.00,,,0.00,426.000000,,2013-05-03 17:42:00,
2013-05-03 13:52:00,61.0,50.0,-100.00,ENE,57,4.0,10.0,67,0.00,,,0.00,426.000000,,2013-05-03 17:52:00,
2013-05-03 14:01:00,61.0,50.0,-100.00,ENE,57,4.0,10.0,67,0.00,,,0.00,426.000000,,2013-05-03 18:01:00,
2013-05-03 14:32:00,63.0,48.0,-100.00,East,84,4.0,12.0,59,0.00,,,0.00,642.000000,,2013-05-03 18:32:00,
2013-05-03 14:42:00,63.0,48.0,-100.00,East,84,4.0,12.0,59,0.00,,,0.00,642.000000,,2013-05-03 18:42:00,
2013-05-03 14:52:00,63.0,48.0,-100.00,East,84,4.0,12.0,59,0.00,,,0.00,642.000000,,2013-05-03 18:52:00,
2013-05-03 15:01:00,63.0,48.0,-100.00,East,84,4.0,12.0,59,0.00,,,0.00,642.000000,,2013-05-03 19:01:00,
2013-05-03 15:32:00,64.0,49.0,-100.00,ENE,67,3.0,11.0,58,0.00,,,0.00,521.000000,,2013-05-03 19:32:00,
2013-05-03 15:42:00,64.0,49.0,-100.00,ENE,67,3.0,11.0,58,0.00,,,0.00,521.000000,,2013-05-03 19:42:00,
2013-05-03 15:52:00,64.0,49.0,-100.00,ENE,67,3.0,11.0,58,0.00,,,0.00,521.000000,,2013-05-03 19:52:00,
2013-05-03 16:02:00,64.0,49.0,-100.00,ENE,67,3.0,11.0,58,0.00,,,0.00,521.000000,,2013-05-03 20:02:00,
2013-05-03 16:32:00,64.0,48.0,-100.00,ENE,71,4.0,10.0,57,0.00,,,0.00,422.000000,,2013-05-03 20:32:00,
2013-05-03 16:42:00,64.0,48.0,-100.00,ENE,71,4.0,10.0,57,0.00,,,0.00,422.000000,,2013-05-03 20:42:00,
2013-05-03 16:52:00,64.0,48.0,-100.00,ENE,71,4.0,10.0,57,0.00,,,0.00,422.000000,,2013-05-03 20:52:00,
2013-05-03 17:01:00,64.0,48.0,-100.00,ENE,71,4.0,10.0,57,0.00,,,0.00,422.000000,,2013-05-03 21:01:00,
2013-05-03 17:33:00,63.0,48.0,-100.00,ENE,74,4.0,12.0,58,0.00,,,0.00,392.000000,,2013-05-03 21:33:00,
2013-05-03 17:43:00,63.0,48.0,-100.00,ENE,74,4.0,12.0,58,0.00,,,0.00,392.000000,,2013-05-03 21:43:00,
2013-05-03 17:53:00,63.0,48.0,-100.00,ENE,74,4.0,12.0,58,0.00,,,0.00,392.000000,,2013-05-03 21:53:00,
2013-05-03 18:03:00,63.0,48.0,-100.00,ENE,74,4.0,12.0,58,0.00,,,0.00,392.000000,,2013-05-03 22:03:00,
2013-05-03 20:32:00,60.0,48.0,-100.00,NE,38,2.0,5.0,64,-99.99,,,0.00,35.000000,,2013-05-04 00:32:00,
2013-05-03 20:42:00,60.0,48.0,-100.00,NE,38,2.0,5.0,64,-99.99,,,0.00,35.000000,,2013-05-04 00:42:00,
2013-05-03 20:52:00,60.0,48.0,-100.00,NE,38,2.0,5.0,64,-99.99,,,0.00,35.000000,,2013-05-04 00:52:00,
2013-05-03 21:01:00,60.0,48.0,-100.00,NE,38,2.0,5.0,64,-99.99,,,0.00,35.000000,,2013-05-04 01:01:00,
2013-05-03 21:32:00,59.0,49.0,-100.00,NE,41,2.0,5.0,69,0.00,,,0.00,1.000000,,2013-05-04 01:32:00,
2013-05-03 21:42:00,59.0,49.0,-100.00,NE,41,2.0,5.0,69,0.00,,,0.00,1.000000,,2013-05-04 01:42:00,
2013-05-03 21:52:00,59.0,49.0,-100.00,NE,41,2.0,5.0,69,0.00,,,0.00,1.000000,,2013-05-04 01:52:00,
2013-05-03 22:02:00,59.0,49.0,-100.00,NE,41,2.0,5.0,69,0.00,,,0.00,1.000000,,2013-05-04 02:02:00,
2013-05-03 22:21:00,58.0,48.0,-100.00,NE,37,2.0,8.0,70,0.00,,,0.00,0.000000,,2013-05-04 02:21:00,
2013-05-03 22:32:00,58.0,48.0,-100.00,NE,37,2.0,8.0,70,0.00,,,0.00,0.000000,,2013-05-04 02:32:00,
2013-05-03 22:42:00,58.0,48.0,-100.00,NE,37,2.0,8.0,70,0.00,,,0.00,0.000000,,2013-05-04 02:42:00,
2013-05-03 22:52:00,58.0,48.0,-100.00,NE,37,2.0,8.0,70,0.00,,,0.00,0.000000,,2013-05-04 02:52:00,
2013-05-03 23:02:00,58.0,48.0,-100.00,NE,37,2.0,8.0,70,0.00,,,0.00,0.000000,,2013-05-04 03:02:00,
2013-05-03 23:22:00,57.0,48.0,-100.00,ENE,58,3.0,7.0,73,0.00,,,0.00,0.000000,,2013-05-04 03:22:00,
2013-05-03 23:33:00,57.0,48.0,-100.00,ENE,58,3.0,7.0,73,0.00,,,0.00,0.000000,,2013-05-04 03:33:00,
2013-05-03 23:43:00,57.0,48.0,-100.00,ENE,58,3.0,7.0,73,0.00,,,0.00,0.000000,,2013-05-04 03:43:00,
2013-05-03 23:53:00,57.0,48.0,-100.00,ENE,58,3.0,7.0,73,0.00,,,0.00,0.000000,,2013-05-04 03:53:00,